Weather History for GMME - February, 2014

Change the Weather History Date:

Monday, February 17, 2014

  Actual Average Record
Temperature  
Mean Temperature 49 °F -  
Max Temperature 57 °F 64 °F 69 °F (2008)
Min Temperature 41 °F 47 °F 37 °F (2005)
Degree Days  
Heating Degree Days 16    
Moisture  
Dew Point 44 °F    
Average Humidity 81    
Maximum Humidity 94    
Minimum Humidity 56    
Precipitation  
Precipitation 0.02 in 0.09 in - ()
Sea Level Pressure  
Sea Level Pressure 29.88 in    
Wind  
Wind Speed 2 mph ()    
Max Wind Speed 7 mph    
Max Gust Speed -    
Visibility 4.8 miles    
Events Rain    
Averages and records for this station are not official NWS values.
T = Trace of Precipitation, MM = Missing Value Source: Averaged Metar Reports

Daily Weather History Graph

Daily Weather History Graph

Search for Another Location

Airport or City:

Trip Planner

Search our weather history database for the weather conditions in past years. The results will help you decide how hot, cold, wet, or windy it might be!

Date:

Astronomy

Feb. 17, 2014 Rise Set
Actual Time 7:09 AM WET 6:12 PM WET
Civil Twilight 6:44 AM WET 6:38 PM WET
Nautical Twilight 6:15 AM WET 7:07 PM WET
Astronomical Twilight 5:46 AM WET 7:36 PM WET
Moon 8:44 PM WET (2/17) 8:11 AM WET (2/17)
Length of Visible Light 11h 53m
Length of Day
11h 02m
Waning Gibbous, 94% of the Moon is Illuminated
Feb 17
Waning Gibbous
Feb 22
Last Quarter
Mar 1
New
Mar 8
First Quarter
Mar 16
Full

Hourly Weather History & Observations

Time (WET) Temp. Windchill Dew Point Humidity Pressure Visibility Wind Dir Wind Speed Gust Speed Precip Events Conditions
12:00 AM 42 °F - 39 °F 84% 29.97 in 5 mi SE 1.2 mph - -   Partly Cloudy
12:00 AM 42.8 °F - 39.2 °F 87% 29.95 in 5.0 mi Variable 1.2 mph - N/A   Scattered Clouds
12:30 AM 42.8 °F - 39.2 °F 87% 29.95 in 5.0 mi Variable 2.3 mph - N/A   Scattered Clouds
1:00 AM 42.8 °F - 39.2 °F 87% 29.95 in 5.0 mi SSE 2.3 mph - N/A   Scattered Clouds
1:30 AM 42.8 °F - 41.0 °F 93% 29.92 in 6.2 mi South 2.3 mph - N/A   Scattered Clouds
2:00 AM 42.8 °F - 41.0 °F 93% 29.92 in 5.0 mi SSE 2.3 mph - N/A   Scattered Clouds
2:30 AM 42.8 °F - 39.2 °F 87% 29.92 in 6.2 mi SSE 1.2 mph - N/A   Scattered Clouds
3:00 AM 43 °F - 40 °F 87% 29.94 in 4 mi Calm Calm - -   Partly Cloudy
3:00 AM 42.8 °F - 41.0 °F 93% 29.92 in 6.2 mi Calm Calm - N/A   Scattered Clouds
3:30 AM 42.8 °F 41.1 °F 41.0 °F 93% 29.89 in 6.2 mi SE 3.5 mph - N/A   Scattered Clouds
4:00 AM 42.8 °F - 41.0 °F 93% 29.89 in 5.0 mi Variable 1.2 mph - N/A   Scattered Clouds
4:30 AM 44.6 °F 42.2 °F 42.8 °F 93% 29.89 in 6.2 mi SSE 4.6 mph - N/A   Scattered Clouds
5:00 AM 44.6 °F - 42.8 °F 93% 29.89 in 5.0 mi SSE 2.3 mph - N/A   Scattered Clouds
5:30 AM 44.6 °F - 42.8 °F 93% 29.89 in 5.0 mi Variable 2.3 mph - N/A   Scattered Clouds
6:00 AM 45 °F - 43 °F 92% 29.89 in - SSE 2.3 mph - -   Partly Cloudy
6:00 AM 44.6 °F - 42.8 °F 93% 29.86 in 5.0 mi SSE 2.3 mph - N/A   Scattered Clouds
6:30 AM 42.8 °F - 41.0 °F 93% 29.86 in 3.1 mi South 2.3 mph - N/A   Scattered Clouds
7:00 AM 42.8 °F - 41.0 °F 93% 29.86 in 3.1 mi South 2.3 mph - N/A   Scattered Clouds
7:30 AM 44.6 °F 43.1 °F 42.8 °F 93% 29.89 in 3.1 mi South 3.5 mph - N/A   Scattered Clouds
8:00 AM 46.4 °F - 44.6 °F 93% 29.89 in 3.1 mi Variable 2.3 mph - N/A   Mostly Cloudy
8:30 AM 48.2 °F - 46.4 °F 93% 29.89 in 3.1 mi SSE 3.5 mph - N/A   Mostly Cloudy
9:00 AM 50 °F - 48 °F 89% 29.91 in 3 mi SSW 2.3 mph - -   Mostly Cloudy
9:00 AM 50.0 °F - 48.2 °F 94% 29.89 in 3.1 mi SW 2.3 mph - N/A   Mostly Cloudy
9:30 AM 51.8 °F - 48.2 °F 88% 29.89 in 3.1 mi South 2.3 mph - N/A   Mostly Cloudy
10:00 AM 51.8 °F - 50.0 °F 94% 29.89 in 5.0 mi SSW 3.5 mph - N/A   Mostly Cloudy
10:30 AM 53.6 °F - 48.2 °F 82% 29.89 in 5.0 mi SW 4.6 mph - N/A   Mostly Cloudy
11:00 AM 55.4 °F - 48.2 °F 77% 29.89 in 5.0 mi SW 4.6 mph - N/A   Scattered Clouds
11:30 AM 55.4 °F - 48.2 °F 77% 29.86 in 5.0 mi West 4.6 mph - N/A   Scattered Clouds
12:00 PM 57 °F - 48 °F 63% 29.87 in 5 mi West 4.6 mph - -   Overcast
12:00 PM 57.2 °F - 48.2 °F 72% 29.86 in 5.0 mi West 4.6 mph - N/A   Mostly Cloudy
12:30 PM 57.2 °F - 44.6 °F 63% 29.86 in 5.0 mi NNW 6.9 mph - N/A   Mostly Cloudy
1:00 PM 57.2 °F - 44.6 °F 63% 29.86 in 5.0 mi NNW 6.9 mph - N/A   Mostly Cloudy
1:30 PM 57.2 °F - 44.6 °F 63% 29.83 in 6.2 mi NNW 5.8 mph - N/A   Mostly Cloudy
2:00 PM 57.2 °F - 44.6 °F 63% 29.83 in 6.2 mi NNW 6.9 mph - N/A   Mostly Cloudy
2:30 PM 57.2 °F - 44.6 °F 63% 29.83 in 6.2 mi NNW 6.9 mph - N/A   Mostly Cloudy
3:00 PM 56 °F - 45 °F 56% 29.84 in 6 mi NNW 4.6 mph - -   Overcast
3:00 PM 57.2 °F - 44.6 °F 63% 29.83 in 6.2 mi NNW 4.6 mph - N/A   Mostly Cloudy
3:30 PM 57.2 °F - 44.6 °F 63% 29.83 in 6.2 mi NNW 3.5 mph - N/A   Mostly Cloudy
4:00 PM 57.2 °F - 44.6 °F 63% 29.83 in 6.2 mi NW 4.6 mph - N/A   Mostly Cloudy
4:30 PM 55.4 °F - 44.6 °F 67% 29.83 in 6.2 mi NW 4.6 mph - N/A   Mostly Cloudy
5:00 PM 55.4 °F - 44.6 °F 67% 29.86 in 6.2 mi NW 3.5 mph - N/A   Mostly Cloudy
5:30 PM 55.4 °F - 44.6 °F 67% 29.86 in 6.2 mi Variable 2.3 mph - N/A   Mostly Cloudy
6:00 PM 54 °F - 45 °F 63% 29.87 in 6 mi NNW 2.3 mph - -   Overcast
6:00 PM 53.6 °F - 44.6 °F 72% 29.86 in 6.2 mi NNW 2.3 mph - N/A   Mostly Cloudy
6:30 PM 51.8 °F - 44.6 °F 76% 29.86 in 3.7 mi Calm Calm - N/A   Mostly Cloudy
7:00 PM 51.8 °F - 44.6 °F 76% 29.89 in 3.7 mi Calm Calm - N/A   Mostly Cloudy
7:30 PM 51.8 °F - 46.4 °F 82% 29.89 in 3.7 mi Calm Calm - N/A   Mostly Cloudy
8:00 PM 50.0 °F - 46.4 °F 87% 29.89 in 3.7 mi Calm Calm - N/A   Mostly Cloudy
8:30 PM 50.0 °F - 46.4 °F 87% 29.89 in 3.7 mi South 1.2 mph - N/A   Mostly Cloudy
9:00 PM 50 °F - 46 °F 81% 29.90 in 4 mi Calm Calm - -   Overcast
9:00 PM 50.0 °F - 46.4 °F 87% 29.89 in 3.7 mi Calm Calm - N/A   Mostly Cloudy
9:30 PM 50.0 °F - 46.4 °F 87% 29.89 in 3.7 mi WSW 1.2 mph - N/A   Mostly Cloudy
10:00 PM 50.0 °F - 46.4 °F 87% 29.89 in 3.7 mi Calm Calm - N/A   Mostly Cloudy
10:30 PM 51.8 °F - 46.4 °F 82% 29.89 in 3.7 mi SE 2.3 mph - N/A   Mostly Cloudy
11:00 PM 51.8 °F - 48.2 °F 88% 29.89 in 3.7 mi SE 2.3 mph - N/A   Mostly Cloudy
11:30 PM 51.8 °F - 48.2 °F 88% 29.89 in 3.1 mi SE 2.3 mph - N/A Rain Light Rain